Location: Audinghen
(50.8518°N, 1.6129°E)
Time: 01:30:46
(UTC+00:00)

Daily predictions for brighter satellites

Satellite Brightness Start Highest point End
(mag) Time Altitude Azimuth Time Altitude Azimuth Time Altitude Azimuth
GENESIS II 4.3 00:03:21 10° NW 00:07:23 74° NE 00:07:31 72° ENE
Cosmos 2333 4.2 00:03:07 10° NNW 00:08:54 69° WSW 00:10:13 52° S
Cosmos 2219 Rocket 2.1 00:03:43 10° NNW 00:09:27 89° ENE 00:11:13 47° SSE
Cosmos 836 Rocket 4.4 00:05:25 10° NNW 00:10:38 73° WSW 00:11:32 59° S
Cosmos 1464 Rocket 4.2 00:08:47 41° SSE 00:10:49 60° E 00:16:55 10° NNE
Lacrosse 4 Rocket 1.6 00:13:01 59° ESE 00:13:01 59° ESE 00:16:59 10° NE
Cosmos 1782 Rocket 3.6 00:12:54 58° ESE 00:13:10 60° E 00:17:27 10° NNE
Cosmos 2233 Rocket 4.3 00:10:46 37° SW 00:13:10 60° WNW 00:19:28 10° N
FALCON 9 DEB 3.8 00:15:49 52° NE 00:15:49 52° NE 00:18:45 10° ENE
Cosmos 2322 Rocket 3.8 00:13:01 10° NW 00:17:04 20° W 00:17:43 20° WSW
Cosmos 1354 Rocket 4.5 00:16:38 43° SE 00:17:32 47° ESE 00:22:38 10° NE
SL-4 R/B 4.1 00:22:19 14° E 00:22:19 14° E 00:22:51 10° E
Cosmos 968 Rocket 3.3 00:19:13 59° S 00:20:08 78° ESE 00:25:17 10° NNE
Landsat 4 3.8 00:16:30 10° NNE 00:20:07 71° ENE 00:20:07 71° ENE
SL-16 R/B 4.3 00:15:50 10° NNW 00:20:29 25° NE 00:25:05 10° E
Cosmos 1908 Rocket 3.6 00:21:10 62° WSW 00:21:36 67° WNW 00:25:59 10° N
COSMOS 2428 2.6 00:21:49 10° NNW 00:27:34 78° WSW 00:29:11 49° SSE
Nadezhda 4 Rocket 4.0 00:26:26 10° N 00:32:47 76° E 00:35:18 39° SSE
Cosmos 2360 Rocket 3.3 00:28:17 10° NW 00:32:56 27° WSW 00:33:24 27° WSW
SL-16 R/B 3.5 00:28:37 16° SE 00:33:14 44° ENE 00:39:07 10° N
CENTAUR R/B 3.5 00:27:33 10° WSW 00:33:43 49° NNW 00:41:03 10° NE
CZ-2D R/B 3.8 00:31:24 10° NE 00:35:49 24° E 00:38:05 19° SE
Cosmos 2034 Rocket 4.1 00:35:41 41° SSE 00:37:55 68° E 00:44:12 10° NNE
USA 267 3.9 00:33:21 10° E 00:39:43 56° N 00:46:05 10° WNW
Cosmos 1513 Rocket 4.5 00:37:32 44° SSW 00:39:49 86° W 00:46:17 10° N
Cosmos 1072 Rocket 4.4 00:39:08 45° SSW 00:41:11 81° W 00:47:20 10° N
Cosmos 1743 3.9 00:41:15 31° W 00:41:32 31° WNW 00:45:04 10° N
GEOS 3 Rocket 4.1 00:36:37 10° NE 00:41:49 45° SE 00:42:46 41° SSE
Okean 2 Rocket 3.6 00:41:46 44° SE 00:42:31 49° E 00:46:51 10° NNE
Cosmos 1271 Rocket 4.3 00:39:32 10° NW 00:42:07 24° WNW 00:42:07 24° WNW
Meteor 2-9 Rocket 4.1 00:41:29 50° SSW 00:43:03 86° W 00:48:47 10° NNE
ADEOS II 4.5 00:41:57 10° ENE 00:43:55 12° E 00:45:53 10° ESE
Cosmos 1092 Rocket 4.3 00:38:38 10° N 00:44:51 61° ENE 00:48:01 29° SE
Cosmos 1975 Rocket 3.2 00:40:49 10° NNW 00:45:15 57° W 00:45:36 55° WSW
Cosmos 1544 3.8 00:45:29 43° WNW 00:45:29 43° WNW 00:48:55 10° N
Cosmos 1975 3.0 00:45:31 57° W 00:45:42 58° WNW 00:49:41 10° N
Cosmos 1980 3.9 00:40:56 10° NNW 00:46:37 70° ENE 00:49:51 26° SE
Cosmos 2333 Rocket 2.5 00:41:41 10° NW 00:47:13 48° WSW 00:48:12 43° SW
Cosmos 2297 Rocket 3.5 00:45:36 23° SE 00:47:17 26° ESE 00:51:54 10° NE
Cosmos 2219 4.3 00:45:50 26° SE 00:47:24 30° ESE 00:52:14 10° NE
PSLV R/B 3.8 00:42:54 10° N 00:47:30 71° WNW 00:48:26 54° SW
COSMOS 2487 3.9 00:48:08 28° WNW 00:48:19 29° WNW 00:51:23 10° N
Helios 1B rocket 2.2 00:44:22 10° NNE 00:48:29 87° E 00:48:49 75° S
Sich 1 Rocket 3.4 00:48:43 67° S 00:49:17 86° E 00:53:43 10° N
Meteor 1-29 3.3 00:48:59 10° NNE 00:52:12 58° E 00:52:12 58° E
Cosmos 44 Rocket 3.3 00:49:09 10° NW 00:54:06 69° SW 00:55:08 53° S
Cosmos 783 Rocket 4.5 00:49:04 10° NNW 00:54:17 67° WSW 00:55:27 51° SSW
Cosmos 2237 Rocket 2.3 00:51:00 10° NNW 00:56:42 77° ENE 00:59:51 27° SE
Cosmos 1503 Rocket 4.0 00:56:39 47° SW 00:58:15 79° WNW 01:03:40 10° NNE
Cosmos 1300 Rocket 3.6 00:57:53 55° SE 00:58:33 65° E 01:02:51 10° NNE
DELTA 2 DEB (DPAF) 4.4 01:00:27 40° SE 01:01:55 64° ENE 01:06:20 10° N
CZ-4 R/B 4.2 00:59:28 10° N 01:04:21 58° WNW 01:05:48 41° SW
CZ-4C R/B 4.1 01:04:19 33° ESE 01:05:09 40° ENE 01:08:29 10° N
Spot 1 3.9 01:06:48 55° SSE 01:07:41 82° ENE 01:11:48 10° NNW
Cosmos 2151 Rocket 3.6 01:12:29 51° SSE 01:13:28 71° E 01:17:52 10° NNE
Meteor 1-12 Rocket 4.3 01:11:28 40° S 01:13:47 84° E 01:19:50 10° NNE
Timation 2 Rocket 4.0 01:14:34 38° S 01:16:57 70° ESE 01:22:59 10° NE
Cosmos 1707 3.0 01:13:11 10° NNW 01:17:01 52° W 01:17:05 52° W
In-Cosmos 22 4.1 01:11:24 10° NNW 01:17:04 82° W 01:19:15 39° S
Cosmos 1805 4.4 01:24:26 29° SE 01:25:35 35° E 01:29:10 10° NNE
DNEPR-1 R/B 4.2 01:19:42 10° NW 01:25:53 80° NE 01:30:51 10° SE
ERBS 2.4 01:22:52 10° NW 01:26:10 69° NNE 01:29:27 10° ESE
SJ 16-02 3.3 01:25:10 16° SE 01:27:06 21° E 01:30:25 10° NE
Meteor 2-13 Rocket 4.4 01:25:11 10° NNW 01:31:17 75° W 01:34:11 33° S
Cosmos 1538 Rocket 3.9 01:28:34 10° NNW 01:33:43 71° WSW 01:35:51 36° S
Cosmos 2195 Rocket 4.5 01:27:36 10° NNW 01:33:54 74° W 01:37:02 32° S
Cosmos 1025 Rocket 3.4 01:31:31 10° NNW 01:35:36 44° W 01:36:08 41° WSW
Cosmos 2227 Rocket 2.7 01:33:34 30° S 01:36:01 51° ESE 01:41:30 10° NE
Resurs 1-4 Rocket 2.2 01:31:44 10° NNE 01:37:02 70° ESE 01:39:24 33° S
MOZ.5/SAFIR/RUBIN 5/SL-8 3.9 01:36:59 42° SSW 01:38:16 56° W 01:42:58 10° NNW
Cosmos 1674 2.5 01:35:16 10° N 01:39:00 88° E 01:39:47 54° SSE
SL-19 R/B 4.4 01:34:39 10° NNE 01:40:42 72° WNW 01:43:22 33° SW
NOSS 0 Rocket 4.4 01:37:00 10° NW 01:42:46 40° WSW 01:44:40 32° SSW
Cosmos 1733 4.2 01:42:54 27° SE 01:44:20 39° E 01:47:57 10° NNE
Cosmos 1437 4.3 01:41:47 10° NW 01:43:28 23° WNW 01:43:28 23° WNW
ATLAS 3B R/B 3.6 01:40:56 11° W 01:46:58 42° NNW 01:53:19 10° NE
Cosmos 1536 Rocket 4.0 01:43:34 10° NNW 01:47:40 42° W 01:48:26 38° WSW
Cosmos 2026 Rocket 3.9 01:41:57 10° NNW 01:47:59 67° W 01:51:09 29° SSW
USA 215 3.9 01:42:13 10° ENE 01:48:21 41° SE 01:51:29 26° S
Cosmos 2279 Rocket 4.2 01:44:46 24° S 01:48:34 66° E 01:54:44 10° NNE
COBE Rocket 4.0 01:47:33 20° SSE 01:50:45 68° ENE 01:55:23 10° N
Lacrosse 4 Rocket 3.2 01:49:19 15° W 01:51:48 25° NW 01:55:19 10° NNE
FALCON 9 DEB 3.3 01:49:06 10° WNW 01:52:32 74° NNE 01:56:01 10° E
Cosmos 2219 Rocket 3.8 01:48:58 10° WNW 01:52:39 18° W 01:52:53 18° WSW
Cosmos 1634 Rocket 4.0 01:50:26 30° SSW 01:53:43 77° W 02:00:00 10° N
Cosmos 2344 4.4 01:44:44 10° NW 01:54:03 65° SW 02:06:58 10° SSE
Cosmos 2082 4.5 01:53:29 22° SSE 01:56:37 43° ESE 02:01:55 10° NE
SL-4 R/B 1.4 01:58:01 42° W 01:58:58 65° SSW 02:02:20 10° ESE
Cosmos 2112 Rocket 4.4 01:54:00 10° NNW 01:59:14 63° ENE 02:04:23 10° SE
Meteor 1-24 Rocket 3.7 01:58:50 10° N 02:04:24 80° ENE 02:08:55 15° SSE
SL-16 R/B 2.1 01:59:36 10° NNW 02:05:21 86° WSW 02:11:02 10° SSE
CBERS-1 4.4 02:00:47 10° NNE 02:05:52 58° ESE 02:09:09 21° S
Meteor 2-5 Rocket 3.6 02:02:26 10° NNW 02:08:07 77° W 02:11:59 21° S
COSMOS 2428 4.5 02:07:55 10° WNW 02:10:54 14° W 02:11:10 14° W
ARIANE 5 R/B 3.9 02:08:26 10° NNE 02:13:12 35° E 02:17:57 10° SSE
NPP 3.7 02:09:53 10° NNE 02:15:17 73° WNW 02:18:23 26° SSW
H-2A R/B 4.4 02:12:23 10° ESE 02:15:36 23° ENE 02:18:51 10° N
IDEFIX/ARIANE 42P 4.4 02:11:39 10° NE 02:15:57 26° E 02:20:14 10° SSE
CZ-2D R/B 2.3 02:10:52 10° N 02:16:17 63° WNW 02:19:24 26° SW
SL-16 R/B 3.0 02:13:43 25° SSW 02:16:53 42° W 02:22:49 10° NNW
Cosmos 1680 Rocket 3.4 02:11:47 10° NNW 02:17:03 85° WSW 02:22:16 10° SSE
KORONAS-FOTON 4.5 02:14:34 10° NNW 02:18:03 35° W 02:18:47 32° WSW
GEOS 3 Rocket 4.3 02:14:39 10° NE 02:19:54 52° NW 02:23:51 17° WSW
NOSS 3-1 (C) 4.5 02:17:24 16° S 02:21:09 33° ESE 02:26:38 10° NE
AQUA 3.8 02:17:01 10° N 02:21:48 72° WNW 02:24:26 26° SSW
USA 267 3.2 02:15:59 10° ESE 02:22:33 87° SSW 02:29:08 10° WNW
Cosmos 1607 4.0 02:17:37 10° NW 02:24:01 65° SW 02:30:24 10° SSE
ADEOS II 2.2 02:19:17 10° NNE 02:24:34 73° ESE 02:28:23 19° S
Cosmos 1766 3.4 02:26:32 31° SW 02:28:12 57° WNW 02:32:03 10° N
IRS-1D 3.5 02:23:21 10° NNE 02:28:25 89° ESE 02:31:54 21° SSW
Cosmos 2263 Rocket 4.1 02:25:33 10° SSE 02:29:41 22° ESE 02:33:50 10° NE
Meteor 1-22 Rocket 4.0 02:27:12 21° S 02:30:50 89° ESE 02:36:11 10° NNE
Cosmos 2297 Rocket 2.4 02:27:24 23° SW 02:30:55 62° NW 02:36:34 10° NNE
Okean 1-7 Rocket 3.5 02:26:38 10° N 02:31:04 88° E 02:35:04 13° S
Cosmos 2219 3.6 02:27:45 22° SW 02:31:16 55° NW 02:36:49 10° NNE
IRS-1C 4.4 02:28:50 10° NNE 02:34:10 65° ESE 02:38:43 14° S
Uosat 12 SS-18 rocket 4.4 02:33:34 22° WSW 02:36:38 65° NW 02:41:02 10° NE
Cosmos 1626 2.4 02:33:33 10° NNW 02:37:09 48° W 02:38:57 26° SSW
Cosmos 2266 Rocket 4.0 02:31:32 10° N 02:37:57 84° W 02:44:15 10° S
Cosmos 1655 Rocket 4.0 02:32:34 10° NNW 02:38:48 65° W 02:44:27 12° S
Meteor 1-28 Rocket 3.2 02:36:22 11° SSE 02:40:04 85° ENE 02:43:54 10° NNW
Cosmos 2237 Rocket 3.5 02:36:02 10° NW 02:40:07 21° W 02:41:37 19° WSW
Okean 1 Rocket 3.9 02:38:14 22° WSW 02:40:18 35° WNW 02:44:20 10° N
CZ-4B R/B 3.5 02:36:58 10° N 02:41:43 63° WNW 02:44:51 21° SW
Cosmos 1470 2.9 02:41:43 17° S 02:44:43 72° E 02:48:42 10° NNE
Cosmos 1603 4.3 02:39:06 10° NNW 02:44:50 62° NE 02:50:30 10° SE
SL-08 R/B 3.4 02:44:31 10° S 02:49:27 72° WSW 02:54:26 10° NNW
Cosmos 2098 Rocket 3.5 02:48:26 10° NNW 02:53:00 64° W 02:58:46 10° S
USA 229 DEB 4.3 02:48:34 13° SSW 02:54:07 49° ESE 03:00:42 10° NE
USA 229 4.3 02:48:40 13° SSW 02:54:11 49° ESE 03:00:45 10° NE
Cosmos 158 Rocket 4.4 02:49:44 10° NW 02:54:49 44° WSW 02:59:54 10° S
SL-14 R/B 4.2 02:58:07 10° NNW 03:01:36 30° W 03:03:48 18° SW
ERBS 3.5 02:59:36 10° W 03:02:09 21° SW 03:04:41 10° S
NOSS 3-1 (A) 4.3 03:00:13 10° S 03:05:19 40° ESE 03:11:11 10° NE
SJ 16-02 1.7 03:02:10 17° SW 03:05:20 51° WNW 03:09:41 10° NNE
CSL-04 DEB 4.3 03:06:59 10° SSE 03:10:54 87° ENE 03:14:52 10° NNW
Cosmos 1809 Rocket 4.4 03:05:56 10° NNW 03:12:02 73° W 03:18:07 10° S
Cosmos 1943 3.4 03:06:28 10° NNW 03:12:08 79° ENE 03:17:46 10° SSE
IRS-P3 4.3 03:07:43 10° N 03:13:01 62° WNW 03:17:57 12° SSW
Cosmos 1626 Rocket 3.5 03:09:04 10° NNW 03:13:25 74° W 03:17:42 10° S
Cosmos 1455 Rocket 3.4 03:11:32 14° SSW 03:15:07 49° WNW 03:19:28 10° N
Resurs 1-4 Rocket 3.6 03:12:20 10° N 03:16:23 23° WNW 03:20:26 10° WSW
Spot 4 Rocket 4.2 03:11:43 10° NNE 03:16:56 80° ESE 03:22:06 10° SSW
Cosmos 1758 3.4 03:13:24 12° SSW 03:17:02 63° WNW 03:21:03 10° N
Meteor 1-21 Rocket 4.2 03:11:31 10° NNW 03:17:08 85° WSW 03:22:39 10° S
Cosmos 2227 Rocket 3.2 03:15:24 11° WSW 03:20:17 36° NW 03:25:32 10° NNE
SeaSat 1 3.6 03:16:38 10° NE 03:21:16 39° ESE 03:25:52 10° S
CZ-2C R/B 3.1 03:21:10 10° NNE 03:25:05 65° ESE 03:28:53 10° S
Landsat 5 3.3 03:21:44 10° SSE 03:25:38 89° WSW 03:29:42 10° NNW
CZ-2D R/B 3.4 03:22:36 10° NNE 03:26:43 78° WNW 03:30:42 10° SSW
Cosmos 1461 3.1 03:23:26 13° SW 03:27:23 78° NW 03:32:01 10° NE
FALCON 9 DEB 3.7 03:26:12 10° W 03:29:25 35° SSW 03:32:37 10° SE
Cosmos 1758 Rocket 3.9 03:27:02 10° N 03:31:22 68° ENE 03:35:39 10° SSE
USA 215 3.4 03:25:11 10° ENE 03:31:46 83° NNW 03:38:19 10° WSW
ATLAS CENTAUR R/B 4.1 03:31:25 10° SE 03:33:08 12° ESE 03:34:49 10° E
Cosmos 1340 Rocket 3.3 03:29:56 11° SW 03:33:39 43° WNW 03:37:28 10° N
Cosmos 724 4.5 03:29:06 10° NW 03:34:57 55° WSW 03:40:52 10° SSE
ERS-2 2.0 03:33:16 10° S 03:36:54 74° WSW 03:40:34 10° NNW
SL-4 R/B 3.1 03:35:41 10° W 03:38:01 17° SW 03:40:19 10° S
Cosmos 2228 4.4 03:33:57 10° SSE 03:38:01 40° E 03:42:10 10° NNE
ATLAS 3B R/B 4.5 03:33:47 10° WNW 03:39:21 27° N 03:45:03 10° NE
Cosmos 1953 2.4 03:35:58 10° SSW 03:39:58 69° WNW 03:44:02 10° N
Cosmos 2082 4.5 03:35:30 10° WSW 03:40:47 41° NW 03:46:06 10° NNE
Cosmos 1726 2.3 03:39:16 10° SSW 03:42:53 54° WNW 03:46:31 10° N
Cosmos 1908 3.7 03:41:14 10° S 03:45:06 67° E 03:49:01 10° NNE
Meteor 1-16 Rocket 4.3 03:40:54 10° S 03:46:16 84° E 03:51:50 10° NNE
SL-16 R/B 3.7 03:45:12 10° WNW 03:48:37 16° W 03:52:02 10° SW
H-2A R/B 2.3 03:47:26 10° S 03:51:22 44° W 03:55:20 10° NNW
ARIANE 5 R/B 3.2 03:47:30 10° N 03:52:22 41° WNW 03:57:15 10° SW
Cosmos 1937 Rocket 3.9 03:47:46 10° SW 03:52:57 53° WNW 03:58:11 10° NNE
Cosmos 1825 Rocket 3.6 03:49:35 10° N 03:53:58 90° WNW 03:58:17 10° S
CZ-2D R/B 4.2 03:52:38 10° NNW 03:55:20 14° NW 03:58:02 10° W
IDEFIX/ARIANE 42P 2.8 03:50:48 10° N 03:55:52 55° WNW 04:00:55 10° SW
